Greenwood, MS

9:00 PM CDT on July 25, 2017 (GMT -0500)
Greenwood-Leflore

Weather History for KGWO - January, 2013

Change the Weather History Date:

Tuesday, January 15, 2013

  Actual Average Record
Temperature  
Mean Temperature 33 °F 43 °F  
Max Temperature 34 °F 53 °F 77 °F (1950)
Min Temperature 32 °F 33 °F 15 °F (1979)
Degree Days  
Heating Degree Days 32 22  
Month to date heating degree days 278 330  
Since 1 July heating degree days 1311 1396  
Cooling Degree Days 0 0  
Month to date cooling degree days 6 0  
Year to date cooling degree days 6 0  
Moisture  
Dew Point 32 °F    
Average Humidity 95    
Maximum Humidity 100    
Minimum Humidity 89    
Precipitation  
Precipitation 0.59 in 0.13 in 1.26 in (1954)
Month to date precipitation 7.37 2.17  
Year to date precipitation 7.37 2.17  
Sea Level Pressure  
Sea Level Pressure 30.12 in    
Wind  
Wind Speed 8 mph (North)    
Max Wind Speed 16 mph    
Max Gust Speed 18 mph    
Visibility 6 miles    
Events Rain    
T = Trace of Precipitation, MM = Missing Value Source: NWS Daily Summary

Daily Weather History Graph

Daily Weather History Graph

Search for Another Location

Airport or City:

Trip Planner

Search our weather history database for the weather conditions in past years. The results will help you decide how hot, cold, wet, or windy it might be!

Date:

Astronomy

Jan. 15, 2013 Rise Set
Actual Time 7:04 AM CST 5:15 PM CST
Civil Twilight 6:37 AM CST 5:42 PM CST
Nautical Twilight 6:06 AM CST 6:13 PM CST
Astronomical Twilight 5:37 AM CST 6:43 PM CST
Moon 9:25 AM CST (1/15) 9:48 PM CST (1/15)
Length of Visible Light 11h 05m
Length of Day
10h 11m
Waxing Crescent, 19% of the Moon is Illuminated
Jan 15
Waxing Crescent
Jan 18
First Quarter
Jan 26
Full
Feb 3
Last Quarter
Feb 10
New

Hourly Weather History & Observations

Time (CST) Temp. Windchill Dew Point Humidity Pressure Visibility Wind Dir Wind Speed Gust Speed Precip Events Conditions
12:53 AM 33.1 °F 24.9 °F 30.9 °F 92% 30.20 in 10.0 mi NNE 10.4 mph - N/A   Overcast
1:53 AM 33.8 °F 25.8 °F 30.2 °F 87% 30.20 in 10.0 mi NNE 10.4 mph - N/A   Overcast
2:53 AM 32.0 °F 23.6 °F 30.9 °F 96% 30.17 in 8.0 mi NNE 10.4 mph - N/A   Overcast
3:53 AM 32.0 °F 23.0 °F 30.0 °F 92% 30.17 in 10.0 mi NNE 11.5 mph - N/A   Overcast
4:53 AM 32.0 °F 23.0 °F 30.0 °F 92% 30.15 in 9.0 mi NNE 11.5 mph - N/A   Overcast
5:53 AM 32.0 °F 25.6 °F 30.9 °F 96% 30.16 in 8.0 mi NNE 6.9 mph - N/A   Overcast
6:53 AM 32.0 °F 24.2 °F 30.9 °F 96% 30.14 in 8.0 mi North 9.2 mph - N/A   Overcast
7:53 AM 33.1 °F 25.5 °F 30.9 °F 92% 30.17 in 7.0 mi NNE 9.2 mph - 0.00 in Rain Light Rain
8:53 AM 33.1 °F 25.5 °F 30.9 °F 92% 30.16 in 4.0 mi North 9.2 mph - 0.00 in Rain Light Rain
9:53 AM 33.1 °F 24.9 °F 32.0 °F 96% 30.14 in 4.0 mi NNE 10.4 mph - 0.00 in Rain Light Rain
10:09 AM 33.8 °F 24.8 °F 32.0 °F 93% 30.11 in 2.0 mi NNE 12.7 mph - 0.01 in Rain Light Rain
10:24 AM 33.8 °F 27.7 °F 32.0 °F 93% 30.12 in 4.0 mi NNE 6.9 mph - 0.01 in Rain Light Rain
10:53 AM 34.0 °F 27.2 °F 32.0 °F 92% 30.10 in 7.0 mi NE 8.1 mph - 0.01 in   Overcast
11:45 AM 33.8 °F - 32.0 °F 93% 30.11 in 1.8 mi Calm Calm - 0.03 in Rain Light Rain
11:53 AM 33.1 °F 26.9 °F 32.0 °F 96% 30.11 in 1.0 mi NNW 6.9 mph - 0.06 in Rain Rain
12:04 PM 33.8 °F 26.4 °F 32.0 °F 93% 30.13 in 2.0 mi NW 9.2 mph - 0.01 in Rain Light Rain
12:18 PM 33.8 °F 26.4 °F 32.0 °F 93% 30.12 in 1.2 mi NNW 9.2 mph - 0.07 in Rain Heavy Rain
12:44 PM 33.8 °F 26.4 °F 30.2 °F 87% 30.09 in 3.0 mi North 9.2 mph - 0.13 in Rain Light Rain
12:53 PM 33.1 °F 25.5 °F 30.9 °F 92% 30.11 in 3.0 mi North 9.2 mph - 0.14 in Rain Light Rain
1:53 PM 33.1 °F 25.5 °F 30.9 °F 92% 30.08 in 8.0 mi North 9.2 mph - 0.02 in Rain Light Rain
2:53 PM 33.1 °F 26.1 °F 30.9 °F 92% 30.11 in 8.0 mi NNW 8.1 mph - 0.03 in Rain Light Rain
3:53 PM 32.0 °F 24.2 °F 30.9 °F 96% 30.07 in 7.0 mi North 9.2 mph - 0.00 in   Overcast
4:53 PM 33.1 °F 26.9 °F 32.0 °F 96% 30.07 in 5.0 mi NE 6.9 mph - 0.03 in Rain Light Rain
5:53 PM 34.0 °F 28.8 °F 33.1 °F 96% 30.07 in 6.0 mi NNE 5.8 mph - 0.03 in Rain Light Rain
6:53 PM 33.1 °F 27.7 °F 33.1 °F 100% 30.08 in 4.0 mi North 5.8 mph - 0.04 in Rain Rain
7:53 PM 34.0 °F 28.0 °F 33.1 °F 96% 30.08 in 4.0 mi North 6.9 mph - 0.07 in Rain Light Rain
8:53 PM 34.0 °F 28.0 °F 33.1 °F 96% 30.07 in 10.0 mi North 6.9 mph - 0.00 in   Overcast
9:53 PM 34.0 °F 29.8 °F 33.1 °F 96% 30.09 in 4.0 mi North 4.6 mph - 0.03 in Rain Rain
10:53 PM 33.1 °F 26.9 °F 32.0 °F 96% 30.09 in 4.0 mi North 6.9 mph - 0.09 in Rain Rain
11:53 PM 33.8 °F 27.7 °F 32.0 °F 93% 30.10 in 8.0 mi North 6.9 mph - N/A Rain Light Rain